Regional Weather Roundup
Issued by NWS

Home | Current Version | Previous Version | Text Only | Print | Product List | Glossary Off
Versions: 1 2 3 4 5 6 7 8 9 10 11 12 13 14 15 16 17 18 19 20 21 22 23 24 25 26 27 28 29 30 31 32 33 34 35 36 37 38 39 40 41 42 43 44 45 46 47 48 49 50

000
ASUS43 KLSX 300559
RWRMO

WEATHER SUMMARY FOR MISSOURI
NATIONAL WEATHER SERVICE SPRINGFIELD MO
100 AM CDT MON MAR 30 2015

NOTE: "FAIR" INDICATES FEW OR NO CLOUDS BELOW 12,000 FEET WITH NO
       SIGNIFICANT WEATHER AND/OR OBSTRUCTIONS TO VISIBILITY.
       CURRENT SKY AND/OR WEATHER CONDITIONS ARE NOT AVAILABLE FOR
       CHILLICOTHE AND FARMINGTON.

MOZ001>031-035>038-043-044-053-054-300700-
...NORTHERN AND WESTERN MISSOURI...

CITY           SKY/WX    TMP DP  RH WIND       PRES   REMARKS
KANSAS CTY INT CLEAR     47  34  60 SW9       30.16S
6HR MIN TEMP:  47; 6HR MAX TEMP:  58;

KANSAS C DTWN  CLEAR     43  36  76 CALM      30.16S
6HR MIN TEMP:  42; 6HR MAX TEMP:  62; 6HR PCP: TRACE;

LEE`S SUMMIT   CLEAR     47  36  65 SW5       30.16F
6HR MIN TEMP:  47; 6HR MAX TEMP:  61;

CHILLICOTHE      N/A     40  34  79 CALM      30.15R
6HR MIN TEMP:  40; 6HR MAX TEMP:  59;

KIRKSVILLE     CLEAR     40  32  73 W7        30.12R
6HR MIN TEMP:  40; 6HR MAX TEMP:  57;


$$
MOZ066>068-077>081-088>096-101>105-300700-
...SOUTHWEST MISSOURI...

CITY           SKY/WX    TMP DP  RH WIND       PRES   REMARKS
SPRINGFIELD    CLEAR     44  39  82 NW7       30.16S
6HR MIN TEMP:  43; 6HR MAX TEMP:  57;

JOPLIN         CLEAR     47  41  80 N3        30.19R
6HR MIN TEMP:  44; 6HR MAX TEMP:  60;


$$
MOZ032>034-039>042-045>050-055>058-069>072-300700-
...CENTRAL MISSOURI...

CITY           SKY/WX    TMP DP  RH WIND       PRES   REMARKS
COLUMBIA       CLEAR     46  37  71 W7        30.13S
6HR MIN TEMP:  46; 6HR MAX TEMP:  56;

JEFFERSON CITY CLEAR     41  38  89 NW3       30.14S
6HR MIN TEMP:  41; 6HR MAX TEMP:  59;

ROLLA          CLEAR     41  36  82 W5        30.12S
6HR MIN TEMP:  41; 6HR MAX TEMP:  55;

SEDALIA        CLEAR     48  36  63 W6        30.15S
6HR MIN TEMP:  47; 6HR MAX TEMP:  63;

OSAGE BEACH    CLEAR     45  36  70 CALM      30.15S

$$
MOZ051-052-059>065-300700-
...EAST CENTRAL MISSOURI...

CITY           SKY/WX    TMP DP  RH WIND       PRES   REMARKS
ST LOUIS INTL  CLEAR     48  39  71 W7        30.11R
6HR MIN TEMP:  46; 6HR MAX TEMP:  57;

SPIRIT OF STL  CLEAR     42  37  82 SW7       30.10R
6HR MIN TEMP:  41; 6HR MAX TEMP:  57;

ST CHARLES     CLEAR     48  39  71 W7        30.10R
6HR MIN TEMP:  46; 6HR MAX TEMP:  56;


$$
MOZ072>076-082>087-097>100-106>115-300700-
...SOUTH CENTRAL AND SOUTHEAST MISSOURI...

CITY           SKY/WX    TMP DP  RH WIND       PRES   REMARKS
CAPE GIRARDEAU PTCLDY    45  45 100 W6        30.10S
6HR MIN TEMP:  45; 6HR MAX TEMP:  55;

FARMINGTON     CLEAR     50  39  66 NW8       30.15R
6HR MIN TEMP:  46; 6HR MAX TEMP:  55;

POPLAR BLUFF   CLEAR     46  43  89 CALM      30.09S
6HR MIN TEMP:  46; 6HR MAX TEMP:  56;

WEST PLAINS    CLEAR     50  39  66 NW7       30.14S
6HR MIN TEMP:  47; 6HR MAX TEMP:  59;


$$


USA.gov is the U.S. government's official web portal to all federal, state and local government web resources and services.